Location: Newark
(33.6439°N, 114.9881°W)
Time: 04:52:02
(UTC+00:00)

A-11 Canister half - Pass Details

Date: 01 September 2019
Orbit: 1527 x 1682 km, 47.3° (Epoch: 16 September)

Event Time Altitude Azimuth Distance (km) Brightness Sun altitude
Rises 16:55:02 0° 245° (WSW) 4,760 11.3 44.3°
Reaches altitude 10° 16:58:08 10° 249° (WSW) 3,797 10.9 44.9°
Maximum altitude 17:07:45 65° 330° (NNW) 1,771 9.8 46.7°
Drops below altitude 10° 17:17:44 10° 51° (NE) 3,920 11.5 48.5°
Sets 17:20:59 0° 55° (NE) 4,922 11.9 49.1°
